User: anonymous   Login
Location: *
(37.5724°S, 58.0067°E)
Time: 20:14:55
(UTC+00:00)
Language:

Cosmos 1980 - Orbit

View from above orbital plane
View from above orbital plane
View from above satellite
View from above satellite

Ground track
Ground track

The orbit data is extracted from the following two-line orbital elements,

1 19649U 88102A   21134.92429412 -.00000117  00000-0 -35709-4 0  9991
2 19649  71.0006 309.0585 0007504 294.5778  65.4562 14.14733883676226
Epoch (UTC): 14 May 2021 22:10:59
Eccentricity: 0.0007504
inclination: 71.0006°
perigee height: 838 km
apogee height: 848 km
right ascension of ascending node: 309.0585°
argument of perigee: 294.5778°
revolutions per day: 14.14733883
mean anomaly at epoch: 65.4562°
orbit number at epoch: 67622

The dashed part of the orbit path shows where the satellite is in the earth's shadow,  

DLR